Location: Azenweiler
(47.8027°N, 9.4096°E)
Time: 23:24:34
(UTC+00:00)

Cosmos 2082 Rocket - Pass Details

Date: 10 December 2025
Orbit: 832 x 852 km, 71.0° (Epoch: 19 January)

Event Time Altitude Azimuth Distance (km) Brightness Sun altitude
Exits shadow 03:23:30 37° 62° (ENE) 1,285 3.4 -35.3°
Drops below altitude 10° 03:27:08 10° 37° (NE) 2,450 5.0 -34.7°
Sets 03:29:39 0° 32° (NNE) 3,388 5.8 -34.3°
